QIANFAN-39 (62240 NORAD) Tracking and Keplerian Element Data

This shows tracking and keplerian element data for the satellite.

Feedback or suggestion? Click here.




ElementValue
Catalog62240
NameQIANFAN-39
Epoch Orbit5695
Epoch Day34.76129278
Epoch Year2025
RAAN73.163
Inclination88.9889
Eccentricity0.0016935
Argument of Perigee28.3796
Mean Anonmoly331.8315
Mean Motion14.25057674
Decay Rate5.17E-06
L11 62240U 24232D 25034.76129278 .00000517 00000+0 21447-3 0 9996
L22 62240 88.9889 73.1630 0016935 28.3796 331.8315 14.25057674 56955



Live tracking and technical data element details for QIANFAN-39 (NORAD 62240). QIANFAN-39 can be tracked NOW for your location showing map with azimuth and elevation plus other details from your city location.







IsCatalogInMostPopularTable: catalog: 62240, numindb: 9
Update: records affected: 1



GetName: 62240 QIANFAN-39

Hit Count: updated at: Sat, 24 May 2025 15:54:20 GMT